Theta_e
319 320 320 320 320 321 322 322 322 322 322 323 324 323 323 322 322 322 323 324 325 326 326 326 326 327 322 310 310 316 334 325 319 318 315 313 310 308 304 305 304 301 304 305 306 306 307
319 320 320 321 321 321 321 322 322 322 322 323 323 322 321 322 322 323 324 324 325 326 325 325 326 326 315 305 316 317 317 317 318 317 314 314 311 310 306 305 304 305 306 306 307 307 307
321 321 321 321 322 321 322 322 321 322 322 322 321 321 321 321 322 323 324 324 325 325 325 325 325 322 312 309 318 319 317 316 317 317 313 315 314 311 309 305 307 306 302 305 305 306 305
321 321 321 321 321 322 322 322 321 322 321 321 321 321 321 322 322 323 323 324 326 324 324 324 324 320 308 319 322 317 318 317 318 318 316 316 316 311 308 309 306 302 302 299 304 305 305
322 322 321 321 321 321 321 321 322 321 321 321 321 320 320 320 321 322 322 325 327 325 324 324 320 315 306 319 313 317 318 314 315 316 317 315 313 308 307 303 301 302 296 297 300 306 304
323 323 322 321 321 321 322 322 321 321 321 321 321 321 321 321 321 322 320 323 324 321 322 321 316 308 310 308 313 315 318 316 313 312 310 309 309 305 305 301 292 295 296 297 297 302 303
325 324 323 321 322 322 323 322 321 321 320 321 321 321 320 321 320 320 316 312 309 307 312 306 307 306 308 315 315 313 316 314 312 309 301 306 302 297 299 301 301 299 297 297 300 303 301
325 325 324 322 322 323 323 322 321 320 320 321 321 321 320 320 319 315 315 309 309 310 305 309 310 311 312 314 307 311 316 307 306 301 303 301 298 301 302 301 300 299 297 297 300 302 301
327 325 325 323 322 323 323 322 321 320 320 321 321 321 320 319 318 315 312 309 313 314 306 307 311 311 310 312 306 308 310 308 304 301 299 297 298 301 299 299 297 298 295 296 297 300 301
327 326 326 324 323 323 324 323 322 321 320 321 321 321 319 317 313 312 310 313 316 317 301 301 305 308 309 309 304 310 309 307 304 299 299 298 299 297 298 297 298 294 299 299 298 296 291
328 327 326 325 324 324 324 323 322 321 320 320 321 320 318 313 312 309 312 317 318 315 292 302 304 310 307 305 304 305 307 306 300 300 299 295 296 295 296 296 299 296 302 299 298 296 295
328 328 327 325 324 324 323 322 322 321 320 321 321 320 317 311 314 313 317 317 315 299 291 299 303 299 300 302 302 304 304 306 303 297 297 296 299 298 299 300 299 302 300 298 297 296 291
328 327 326 325 324 324 324 323 322 321 321 321 320 319 313 312 308 316 317 312 298 293 299 297 297 298 297 297 298 299 299 297 295 292 292 295 295 298 299 297 300 301 298 294 291 291 288
328 327 326 325 324 324 324 323 322 321 321 320 318 312 310 313 316 316 313 302 293 296 296 299 297 297 296 297 296 297 297 296 297 295 293 290 289 294 298 296 295 297 297 291 283 285 289
322 327 325 325 324 324 324 323 322 322 320 318 310 307 308 313 315 314 305 297 297 297 299 297 295 294 294 295 296 296 295 295 296 296 291 290 290 296 297 299 300 295 293 298 290 290 288
321 324 326 325 324 323 323 323 323 322 320 313 310 302 304 314 315 309 302 297 298 300 298 297 293 295 292 293 294 294 293 296 295 297 298 294 288 293 295 300 299 297 299 292 295 285 283
318 319 323 325 324 322 322 323 323 322 318 310 304 296 305 315 309 304 297 298 298 301 300 296 294 294 294 294 294 293 293 296 297 295 297 295 291 291 294 292 292 295 294 294 295 293 287
317 317 319 321 324 322 322 323 323 321 314 308 299 292 307 308 299 300 298 298 300 299 300 298 298 296 295 296 294 293 293 296 297 295 291 295 292 288 289 294 295 295 293 292 290 287 293
317 317 317 319 320 321 321 322 322 317 312 305 295 295 306 304 294 296 298 297 299 297 297 297 296 298 297 295 292 294 295 297 296 295 293 296 291 287 288 292 293 291 292 292 293 294 289
317 317 317 318 318 317 320 321 320 317 313 303 295 291 299 301 300 297 297 296 295 298 298 298 297 298 295 293 296 294 294 296 296 296 300 298 293 289 286 288 290 288 289 291 291 290 289
314 316 317 317 316 316 316 320 320 317 312 304 296 293 299 293 295 296 298 298 295 293 297 297 294 295 294 291 292 293 295 295 293 296 294 295 289 289 290 290 290 289 288 290 289 293 289
313 314 315 316 316 315 315 316 320 318 311 305 295 293 294 297 296 295 295 295 295 295 296 295 294 296 295 293 294 293 294 294 294 293 292 291 288 288 288 290 290 289 292 292 292 293 292
311 313 314 314 314 314 314 314 313 317 312 308 299 298 297 295 295 293 294 296 296 297 298 299 298 296 293 296 299 298 299 297 296 293 291 290 290 287 287 289 290 289 292 293 294 294 292
310 311 312 314 314 314 314 314 313 316 314 307 301 299 296 290 293 293 295 296 296 297 298 297 299 298 297 298 297 297 295 293 293 292 294 290 289 289 287 290 284 292 296 295 293 294 295
309 311 311 313 313 314 314 314 315 316 315 308 301 299 298 294 293 293 295 295 297 299 296 296 296 299 300 298 295 291 290 291 289 290 291 292 290 287 287 287 291 293 294 294 292 294 297
309 310 311 312 312 313 312 312 313 314 315 310 301 302 299 296 292 296 295 296 294 295 293 293 294 298 298 295 293 290 290 291 288 287 290 290 291 288 288 285 284 292 295 296 295 290 296
308 309 310 311 312 313 311 312 313 314 315 315 306 301 297 292 296 298 296 295 297 296 295 293 293 294 296 294 291 289 290 292 289 289 286 287 287 286 288 287 291 297 296 295 288 293 297
308 308 309 310 310 311 311 311 313 312 313 314 307 303 300 294 295 298 300 297 296 297 294 294 293 293 293 292 292 291 290 291 290 292 289 289 287 286 288 286 285 298 296 292 299 299 299
307 307 308 309 310 311 311 310 311 312 312 313 304 304 305 299 298 299 301 303 303 302 297 296 299 296 297 295 292 292 289 291 293 290 293 290 294 292 293 294 299 299 301 301 301 301 301
Wind_Speed
5 7 7 8 6 7 6 7 7 8 9 10 11 12 13 14 14 14 13 13 12 11 10 9 9 7 5 3 4 3 1 3 2 2 6 6 6 2 1 2 3 6 6 6 10 12 13
5 6 7 8 8 6 7 6 7 8 9 11 12 13 14 14 15 15 14 13 12 11 10 9 7 7 3 3 2 1 3 2 3 3 2 4 5 4 1 3 5 6 10 13 9 9 8
6 6 7 8 9 8 7 6 7 9 10 11 11 13 15 15 15 14 14 14 13 10 8 5 5 4 3 4 0 2 2 1 1 2 2 1 3 5 3 3 3 7 9 10 1 6 9
8 7 7 7 8 9 8 7 8 9 9 10 12 14 15 15 16 14 13 11 6 2 2 2 4 3 1 2 3 1 1 1 1 2 0 1 1 2 4 4 3 5 6 8 7 5 1
9 9 8 8 6 8 9 8 7 8 10 12 13 15 16 18 16 14 10 5 6 5 3 2 3 4 2 2 2 3 3 3 0 2 2 3 2 3 3 5 2 1 9 13 10 6 6
12 10 9 9 8 7 8 8 8 8 10 12 14 14 15 17 17 13 4 1 2 2 3 2 1 4 2 3 4 4 1 2 2 2 4 1 2 5 1 8 8 12 13 9 12 8 12
15 13 11 10 9 8 8 8 8 9 9 10 12 14 15 17 17 10 2 3 4 4 1 3 4 3 3 6 2 2 3 3 1 1 6 3 4 6 9 6 10 12 12 13 11 8 11
15 15 13 12 11 10 9 8 7 8 9 10 12 13 15 16 15 4 2 4 3 4 4 1 1 4 2 3 3 4 7 5 3 5 6 5 3 6 8 7 9 11 11 12 3 5 5
16 16 15 14 13 11 10 9 8 8 9 10 12 13 14 17 12 1 7 4 2 2 2 3 1 2 1 3 3 5 8 5 4 3 6 5 4 7 8 11 13 9 10 13 11 10 3
17 17 16 15 15 13 11 9 7 7 9 9 10 13 16 18 1 1 3 1 1 2 5 4 2 2 2 2 2 3 4 3 2 4 6 3 2 6 9 10 10 9 14 11 5 5 7
19 19 18 16 15 14 12 10 9 6 7 9 9 11 14 10 2 1 3 2 3 4 5 4 3 2 2 2 4 4 3 2 5 5 4 5 5 7 8 11 9 10 13 4 2 3 6
22 21 20 18 16 16 13 11 9 7 6 7 8 10 12 4 1 3 1 4 4 5 3 5 1 2 3 4 2 6 3 3 1 2 2 4 2 3 5 15 5 16 5 3 3 3 3
24 23 22 20 18 17 14 13 10 9 7 6 7 8 8 3 1 3 3 4 5 6 2 5 2 2 1 3 2 5 4 7 7 6 7 6 2 1 4 10 2 16 11 2 2 3 6
25 24 23 22 21 19 17 14 11 9 7 6 8 8 3 3 2 3 3 5 7 2 3 3 2 2 2 3 2 3 1 2 4 4 4 6 3 6 10 4 7 8 7 4 3 6 6
18 25 25 24 22 21 19 17 13 10 7 3 6 2 2 2 5 3 5 5 2 3 5 7 3 3 3 2 2 1 2 2 3 6 7 6 2 2 1 3 5 5 5 3 1 3 5
12 18 25 25 24 22 21 19 17 13 8 2 1 2 2 4 5 4 5 3 4 3 6 3 5 3 4 3 3 1 1 2 2 2 2 2 6 2 2 3 3 5 1 2 2 6 6
12 15 17 25 26 25 23 22 20 17 13 8 2 3 4 3 4 4 7 4 4 5 5 5 5 5 3 3 2 2 2 3 3 2 0 1 3 2 4 2 5 1 2 3 2 3 5
16 17 16 15 26 27 26 24 22 20 16 6 3 4 3 3 6 2 7 5 5 8 3 3 3 3 5 6 4 4 3 2 2 0 1 2 4 6 3 4 3 3 2 4 4 2 1
18 17 14 14 14 18 29 27 25 23 21 7 4 2 3 4 7 7 3 3 6 7 7 7 7 3 2 6 4 4 5 4 4 2 0 3 2 6 5 6 4 3 1 1 3 3 3
19 17 16 7 9 11 22 28 29 27 20 5 5 7 4 5 2 8 8 6 7 4 6 4 5 5 4 5 4 5 6 4 3 2 2 4 3 7 7 8 5 8 4 8 5 5 3
21 18 13 12 11 9 11 27 29 32 24 7 6 7 8 9 11 10 11 10 12 8 3 6 3 7 7 5 4 5 4 4 3 2 2 4 5 4 10 15 14 15 15 11 11 9 6
23 21 20 18 15 15 14 15 37 32 31 10 8 7 3 8 7 19 13 12 14 8 13 8 8 13 10 7 7 7 7 5 3 5 4 2 2 3 7 4 4 9 12 11 11 10 12
23 22 21 18 14 16 15 13 17 37 28 8 5 2 5 9 10 12 16 19 15 12 9 6 15 8 12 14 4 6 1 4 4 5 7 4 2 3 4 4 13 9 4 10 7 7 5
23 23 23 21 18 16 14 13 12 28 30 3 4 3 7 7 12 13 14 19 17 20 12 7 9 11 5 14 14 9 7 3 3 3 2 5 4 2 6 9 4 4 3 0 7 7 10
23 25 23 24 18 16 14 14 16 12 40 8 4 7 7 11 11 8 14 13 13 10 9 10 6 3 15 6 4 4 3 4 4 4 5 6 5 3 4 4 10 1 2 4 4 5 11
24 24 22 22 20 17 16 15 15 16 38 13 3 3 3 9 15 14 14 14 10 12 7 4 4 8 4 3 3 5 6 2 6 4 5 6 6 5 3 4 4 3 1 2 1 7 4
22 23 22 21 21 18 17 15 12 18 39 14 4 6 2 4 7 11 12 11 6 8 8 8 9 5 2 5 4 5 5 2 6 8 7 6 5 10 7 5 7 6 4 2 4 3 2
20 20 19 20 19 20 18 12 10 3 6 20 4 11 9 0 3 5 8 9 5 7 10 11 8 3 5 8 6 5 6 7 4 5 7 9 9 6 6 6 7 11 7 6 3 3 3
19 18 18 19 18 19 19 13 13 16 8 6 3 9 5 5 4 5 4 2 5 10 7 13 1 12 8 6 5 4 4 5 6 5 6 7 5 4 10 5 2 12 0 6 3 2 4
Wind_Direction
299 304 311 309 308 314 326 341 347 344 353 345 348 344 348 337 329 323 319 312 305 300 303 298 292 312 263 136 72 64 318 0 6 345 25 3 358 324 313 320 265 234 310 287 277 283 277
290 302 304 308 308 316 326 337 345 353 353 351 347 345 346 336 329 326 319 309 303 297 288 284 291 304 258 102 64 358 357 324 14 358 26 347 351 335 325 307 287 330 305 291 288 290 272
282 287 293 303 308 311 316 334 356 352 355 344 344 350 341 335 334 330 324 318 305 284 273 270 284 276 245 61 2 310 309 349 326 324 331 18 327 290 318 291 326 294 291 300 284 297 292
271 275 287 294 306 309 317 334 349 351 341 340 350 348 337 341 340 333 337 330 328 254 178 209 266 252 350 103 330 252 268 152 139 124 339 43 266 301 306 316 238 302 262 333 350 323 62
261 268 273 285 286 298 309 322 340 343 337 339 350 341 341 342 336 338 340 346 62 87 129 197 231 275 131 132 267 15 318 315 68 92 99 116 241 323 261 325 259 200 328 329 334 312 317
257 254 264 267 276 277 295 310 330 337 335 340 344 333 339 336 336 333 351 276 16 232 191 233 223 231 133 340 326 337 326 299 285 191 182 273 257 262 234 348 351 320 321 319 319 324 315
262 256 250 258 261 267 282 299 319 324 328 340 339 334 337 334 334 332 286 225 206 158 78 357 68 342 339 338 253 42 343 285 244 219 359 40 288 11 350 339 307 304 305 312 329 341 318
251 256 254 250 249 260 268 284 301 314 323 336 339 336 336 333 331 337 20 61 41 1 137 133 293 277 265 325 266 41 336 328 328 342 325 213 341 350 317 303 306 311 309 343 337 10 292
241 244 248 250 249 245 255 267 288 305 317 331 339 336 336 331 319 340 69 66 330 226 227 149 272 287 349 271 340 2 355 332 326 307 350 301 7 324 310 323 335 342 335 334 309 319 215
232 238 240 244 244 250 247 254 262 291 309 323 335 335 338 328 198 44 66 51 238 237 208 142 171 129 229 302 153 353 28 311 248 322 333 285 6 335 319 325 343 315 356 305 280 294 16
232 229 234 231 241 236 241 242 250 265 295 314 328 338 340 355 76 106 76 206 154 235 247 117 127 33 10 349 335 62 18 272 316 326 277 48 331 342 320 343 333 316 336 298 247 279 273
225 227 227 227 226 235 228 229 241 249 268 300 321 334 336 245 182 94 197 177 206 223 218 157 138 336 206 37 67 323 352 39 322 292 249 299 328 275 319 316 298 315 323 256 237 272 312
224 223 223 224 220 220 226 223 227 242 262 284 308 319 312 285 89 142 174 210 206 246 123 164 150 33 62 23 102 8 19 42 23 325 14 323 129 299 317 317 176 357 353 337 289 357 357
226 222 220 218 219 213 210 217 219 227 244 290 307 311 151 270 187 188 216 214 231 79 181 100 145 137 189 338 105 15 312 72 76 355 316 350 164 7 359 6 321 342 359 27 346 348 326
326 222 218 216 215 213 205 203 203 214 226 265 302 260 225 137 207 245 238 223 282 178 137 160 148 194 157 184 304 304 35 38 31 14 2 336 294 338 3 333 327 15 14 8 291 173 267
319 291 219 213 212 212 207 199 191 188 183 226 285 289 188 137 165 229 245 253 191 165 131 172 207 240 188 168 208 349 199 119 159 54 321 65 286 170 352 239 104 355 55 239 89 0 343
310 320 298 213 213 206 206 200 189 176 159 168 232 221 102 170 216 215 233 224 184 179 157 179 178 162 201 188 210 168 143 156 204 111 136 239 269 122 248 16 339 160 49 47 287 332 334
278 286 302 301 225 206 200 197 188 167 148 161 160 219 117 196 195 211 217 194 165 161 169 142 145 156 197 176 185 199 206 255 159 206 330 83 312 283 310 1 267 307 36 14 325 20 305
273 270 274 303 284 245 198 191 184 164 170 146 184 144 139 240 203 205 174 195 196 156 182 170 171 186 168 190 209 196 205 122 143 229 59 144 173 288 174 173 164 278 338 27 327 275 255
268 255 269 294 325 347 218 193 179 171 183 154 160 179 165 204 289 227 181 193 190 195 158 151 137 141 152 196 226 179 196 166 168 164 64 194 230 262 294 328 322 277 248 285 269 272 2
265 258 257 270 284 315 316 205 191 173 179 175 196 213 177 183 209 207 199 186 180 175 190 167 156 197 167 171 195 213 197 172 156 161 142 245 261 256 269 278 279 270 271 270 239 261 272
270 257 251 254 261 266 287 320 180 186 171 207 181 177 220 160 162 197 196 198 193 167 165 191 217 192 183 183 205 185 179 202 194 158 172 186 257 285 281 259 240 264 257 258 248 255 256
266 267 252 247 248 258 260 260 320 180 182 189 169 105 208 161 162 171 207 203 195 160 201 193 202 149 196 218 160 71 44 132 163 172 168 219 257 292 280 279 299 257 271 207 198 217 231
265 262 259 247 248 250 248 243 290 194 179 94 195 179 196 196 197 197 174 194 199 198 201 173 178 182 135 113 106 96 79 92 190 159 243 178 192 245 292 304 255 68 109 111 263 265 219
262 258 258 250 244 244 244 254 257 257 185 171 161 205 216 213 203 198 185 184 187 180 166 166 155 96 145 124 132 154 174 188 115 63 208 234 209 226 272 282 301 170 173 192 212 291 216
261 255 252 256 242 237 244 251 267 287 201 167 159 138 246 219 214 180 178 174 163 176 143 117 92 137 132 116 160 200 219 200 170 136 75 175 242 256 197 260 250 57 106 163 178 263 160
258 253 251 253 248 244 252 260 261 300 196 187 146 129 154 230 169 167 182 176 146 168 153 133 149 159 233 150 173 189 216 299 193 181 165 155 178 220 222 255 273 236 144 181 216 49 121
259 252 253 255 250 236 239 252 246 259 209 212 115 168 148 72 297 242 167 144 133 180 157 138 125 182 164 184 189 177 214 200 208 141 178 178 165 191 197 224 258 154 129 232 73 128 162
262 253 250 251 250 241 237 232 247 239 217 249 135 154 143 142 200 295 291 349 181 162 129 181 163 152 160 164 195 145 180 174 197 208 196 209 221 182 209 220 35 185 35 188 167 160 176